Home > Products > Valid Products > RWR

000
ASCA42 TJSJ 250010
RWRPR
PUERTO RICO/U.S. VIRGIN ISLANDS HOURLY WEATHER ROUNDUP
NATIONAL WEATHER SERVICE SAN JUAN PR
800 PM AST TUE MAY 24 2016

PRZ001-004-250100-
PUERTO RICO

CITY           SKY/WX    TMP DP  RH WIND       PRES   REMARKS
SAN JUAN LMM   PTCLDY    82  75  78 E8        30.09R
AGUADILLA      CLEAR     82  77  83 N5        30.10R HX  91
CEIBA          MOCLDY    81  75  83 E7        30.12R
$$

PRZ006-007-250100-
U.S. VIRGIN ISLANDS

CITY           SKY/WX    TMP DP  RH WIND       PRES   REMARKS
CHARLOTTE AMA  PTCLDY    84  75  74 E10       30.09R HX  92
CHRISTIANSTED  PTCLDY    81  73  78 NE7       30.10R
$$

HOURLY WEATHER ROUNDUP FOR THE NEWS MEDIA

CITY           SKY/WX    TMP DP  RH WIND       PRES   REMARKS
ORLANDO        CLEAR     80  57  45 E13       30.11F
NEW YORK       CLOUDY    71  49  45 CALM      29.94R
NEWARK         CLOUDY    70  49  47 NE6       29.93S
CHICAGO        PTSUNNY   84  49  29 S9        29.92R
HARTFORD       LGT RAIN  54  52  93 N6        29.92R
BOSTON         CLOUDY    53  51  93 N7        29.95S
DALLAS         PTSUNNY   86  72  62 S14       29.89S HX  92
PHILADELPHIA   CLOUDY    81  44  27 W12       29.93R
LOS ANGELES    MOSUNNY   65  53  65 SW16      30.01S
WASHINGTON DC  FAIR      76  50  40 W3        30.02R





000
ASCA42 TJSJ 242310
RWRPR
PUERTO RICO/U.S. VIRGIN ISLANDS HOURLY WEATHER ROUNDUP
NATIONAL WEATHER SERVICE SAN JUAN PR
700 PM AST TUE MAY 24 2016

PRZ001-004-250000-
PUERTO RICO

CITY           SKY/WX    TMP DP  RH WIND       PRES   REMARKS
SAN JUAN LMM   MOCLDY    82  73  74 E10       30.08R
AGUADILLA      CLEAR     82  75  78 CALM      30.08R
CEIBA          MOCLDY    81  75  83 E6        30.11R
$$

PRZ006-007-250000-
U.S. VIRGIN ISLANDS

CITY           SKY/WX    TMP DP  RH WIND       PRES   REMARKS
CHARLOTTE AMA  PTCLDY    84  73  70 E10       30.08R HX  91
CHRISTIANSTED  LGT RAIN  81  73  78 E10       30.08S
$$

HOURLY WEATHER ROUNDUP FOR THE NEWS MEDIA

CITY           SKY/WX    TMP DP  RH WIND       PRES   REMARKS
ORLANDO        MOSUNNY   82  58  43 E14       30.12S
NEW YORK       CLOUDY    71  48  43 NW6       29.93R
NEWARK         CLOUDY    73  51  46 CALM      29.93R
CHICAGO        MOSUNNY   85  47  26 S14       29.91F
HARTFORD       LGT RAIN  55  54  96 VRB6      29.91R FOG
BOSTON         CLOUDY    53  51  93 N8        29.95R FOG
DALLAS         PTSUNNY   86  71  60 S21       29.89F HX  91
PHILADELPHIA   CLOUDY    81  43  26 W14       29.92R
LOS ANGELES    MOSUNNY   65  53  65 W15       30.01F
WASHINGTON DC  FAIR      80  47  31 NW10      30.00R





000
ASCA42 TJSJ 241810
RWRPR
PUERTO RICO/U.S. VIRGIN ISLANDS HOURLY WEATHER ROUNDUP
NATIONAL WEATHER SERVICE SAN JUAN PR
200 PM AST TUE MAY 24 2016

PRZ001-004-241900-
PUERTO RICO

CITY           SKY/WX    TMP DP  RH WIND       PRES   REMARKS
SAN JUAN LMM   PTSUNNY   88  73  62 E14       30.07F HX  96
AGUADILLA      MOSUNNY   88  77  70 E12       30.07F HX 100
CEIBA          PTSUNNY   86  75  70 E14       30.10F HX  95
$$

PRZ006-007-241900-
U.S. VIRGIN ISLANDS

CITY           SKY/WX    TMP DP  RH WIND       PRES   REMARKS
CHARLOTTE AMA  MOSUNNY   88  75  66 SE9G18    30.08F HX  97
CHRISTIANSTED  MOSUNNY   86  73  66 SE15      30.10F HX  93
$$

HOURLY WEATHER ROUNDUP FOR THE NEWS MEDIA

CITY           SKY/WX    TMP DP  RH WIND       PRES   REMARKS
ORLANDO        PTSUNNY   85  67  54 SE17      30.11S
NEW YORK       PTSUNNY   70  55  59 W10       29.92F
NEWARK         CLOUDY    72  57  59 W10       29.91F
CHICAGO        PTSUNNY   82  52  35 SW20      29.97F
HARTFORD       CLOUDY    60  55  83 NE7       29.88S
BOSTON         CLOUDY    54  52  93 NE12      29.93F
DALLAS         PTSUNNY   82  72  71 S14       29.96F
PHILADELPHIA   PTSUNNY   77  50  38 W16       29.94F
LOS ANGELES    PTSUNNY   64  52  64 W12       30.01R
WASHINGTON DC  FAIR      79  50  36 NW12G21   30.01F





000
ASCA42 TJSJ 241710
RWRPR
PUERTO RICO/U.S. VIRGIN ISLANDS HOURLY WEATHER ROUNDUP
NATIONAL WEATHER SERVICE SAN JUAN PR
100 PM AST TUE MAY 24 2016

PRZ001-004-241800-
PUERTO RICO

CITY           SKY/WX    TMP DP  RH WIND       PRES   REMARKS
SAN JUAN LMM   PTSUNNY   88  73  62 E13G21    30.08F HX  96
AGUADILLA      PTSUNNY   88  77  70 NE14      30.08F HX 100
CEIBA          PTSUNNY   86  75  70 E13       30.11F HX  95
$$

PRZ006-007-241800-
U.S. VIRGIN ISLANDS

CITY           SKY/WX    TMP DP  RH WIND       PRES   REMARKS
CHARLOTTE AMA  MOSUNNY   90  75  62 SE12      30.10F HX 100
CHRISTIANSTED  MOSUNNY   88  75  66 E16       30.11F HX  97
$$

HOURLY WEATHER ROUNDUP FOR THE NEWS MEDIA

CITY           SKY/WX    TMP DP  RH WIND       PRES   REMARKS
ORLANDO        PTSUNNY   86  65  49 E8        30.11F
NEW YORK       PTSUNNY   71  56  58 NW8       29.93R
NEWARK         CLOUDY    70  58  65 SW8       29.92F
CHICAGO        MOSUNNY   80  54  40 SW15      29.99S
HARTFORD       CLOUDY    57  54  89 N7        29.88S
BOSTON         CLOUDY    54  52  93 NE12      29.94S FOG
DALLAS         LGT RAIN  75  73  93 S10       29.98R
PHILADELPHIA   CLOUDY    76  52  43 SW16      29.95F
LOS ANGELES    PTSUNNY   63  52  67 W8        29.99R
WASHINGTON DC  FAIR      78  49  35 N10       30.03F





000
ASCA42 TJSJ 241510
RWRPR
PUERTO RICO/U.S. VIRGIN ISLANDS HOURLY WEATHER ROUNDUP
NATIONAL WEATHER SERVICE SAN JUAN PR
1100 AM AST TUE MAY 24 2016

PRZ001-004-241600-
PUERTO RICO

CITY           SKY/WX    TMP DP  RH WIND       PRES   REMARKS
SAN JUAN LMM   PTSUNNY   88  72  58 SE8       30.11S HX  94
PONCE          MOSUNNY   90  75  62 SE14G23   30.10R HX 100
AGUADILLA      MOSUNNY   84  75  74 E14       30.10F HX  92
CEIBA          PTSUNNY   86  75  70 E12       30.14S HX  95
$$

PRZ006-007-241600-
U.S. VIRGIN ISLANDS

CITY           SKY/WX    TMP DP  RH WIND       PRES   REMARKS
CHARLOTTE AMA  CLOUDY    88  77  70 SE13      30.11F HX 100
CHRISTIANSTED  MOSUNNY   86  73  66 SE16      30.13S HX  93
$$

HOURLY WEATHER ROUNDUP FOR THE NEWS MEDIA

CITY           SKY/WX    TMP DP  RH WIND       PRES   REMARKS
ORLANDO        MOSUNNY   84  67  56 E8        30.11R
NEW YORK       CLOUDY    66  59  78 VRB3      29.92F
NEWARK         CLOUDY    65  59  81 NW3       29.92S
CHICAGO        PTSUNNY   76  53  44 SW13      29.99S
HARTFORD       CLOUDY    55  53  93 NE14      29.87S FOG
BOSTON         CLOUDY    54  52  93 NE12      29.92F FOG
DALLAS         DRIZZLE   76  72  87 SE10      29.97R FOG
PHILADELPHIA   PTSUNNY   70  55  59 S7        29.96R
LOS ANGELES    PTSUNNY   62  51  67 CALM      29.96R
WASHINGTON DC  FAIR      73  52  47 NW13      30.03S





000
ASCA42 TJSJ 241410
RWRPR
PUERTO RICO/U.S. VIRGIN ISLANDS HOURLY WEATHER ROUNDUP
NATIONAL WEATHER SERVICE SAN JUAN PR
1000 AM AST TUE MAY 24 2016

PRZ001-004-241500-
PUERTO RICO

CITY           SKY/WX    TMP DP  RH WIND       PRES   REMARKS
SAN JUAN LMM   MOSUNNY   88  73  62 E17       30.11R HX  96
PONCE          MOSUNNY   86  77  74 SE12G21   30.08R HX  97
AGUADILLA      MOSUNNY   84  73  70 NE3       30.12R HX  91
CEIBA          PTSUNNY   86  73  66 SE10      30.14S HX  93
$$

PRZ006-007-241500-
U.S. VIRGIN ISLANDS

CITY           SKY/WX    TMP DP  RH WIND       PRES   REMARKS
CHARLOTTE AMA  CLOUDY    88  75  66 SE17      30.12S HX  97
CHRISTIANSTED  MOSUNNY   88  73  62 E17       30.13S HX  96
$$

HOURLY WEATHER ROUNDUP FOR THE NEWS MEDIA

CITY           SKY/WX    TMP DP  RH WIND       PRES   REMARKS
ORLANDO        SUNNY     83  67  58 E9        30.10R
NEW YORK       CLOUDY    62  58  86 N6        29.93R
NEWARK         LGT RAIN  62  58  86 W6        29.92S
CHICAGO        MOSUNNY   72  53  51 SW12      29.99F
HARTFORD       CLOUDY    54  53  97 NE10      29.87S FOG
BOSTON         CLOUDY    53  52  96 NE13      29.93F FOG
DALLAS         PTSUNNY   75  72  90 SE8       29.96S
PHILADELPHIA   PTSUNNY   68  56  65 VRB5      29.95R
LOS ANGELES    PTSUNNY   59  52  77 NE6       29.95R
WASHINGTON DC  FAIR      70  53  54 NW14      30.03R





000
ASCA42 TJSJ 241210
RWRPR
PUERTO RICO/U.S. VIRGIN ISLANDS HOURLY WEATHER ROUNDUP
NATIONAL WEATHER SERVICE SAN JUAN PR
800 AM AST TUE MAY 24 2016

PRZ001-004-241300-
PUERTO RICO

CITY           SKY/WX    TMP DP  RH WIND       PRES   REMARKS
SAN JUAN LMM   PTSUNNY   82  75  78 E7        30.11R
PONCE          PTSUNNY   84  75  74 E12       30.07R HX  92
AGUADILLA      SUNNY     79  72  78 E5        30.11R
CEIBA          CLOUDY    84  75  74 SE15      30.14R HX  92
$$

PRZ006-007-241300-
U.S. VIRGIN ISLANDS

CITY           SKY/WX    TMP DP  RH WIND       PRES   REMARKS
CHARLOTTE AMA  MOSUNNY   84  75  74 SE13      30.12R HX  92
CHRISTIANSTED  MOSUNNY   84  73  70 E16       30.12R HX  91
$$

HOURLY WEATHER ROUNDUP FOR THE NEWS MEDIA

CITY           SKY/WX    TMP DP  RH WIND       PRES   REMARKS
ORLANDO        MOSUNNY   75  65  70 E8        30.06R
NEW YORK       LGT RAIN  61  56  83 NW5       29.91R
NEWARK         LGT RAIN  61  58  90 CALM      29.91R
CHICAGO        CLOUDY    61  49  64 S6        29.99R
HARTFORD       CLOUDY    53  51  93 NE8       29.87R FOG
BOSTON         LGT RAIN  53  51  93 E9        29.93R FOG
DALLAS         CLOUDY    75  70  84 S6        29.92R
PHILADELPHIA   PTSUNNY   61  54  77 NW5       29.94R
LOS ANGELES    LGT RAIN  58  52  80 CALM      29.93S
WASHINGTON DC  FAIR      60  55  83 CALM      30.00R





000
ASCA42 TJSJ 241110
RWRPR
PUERTO RICO/U.S. VIRGIN ISLANDS HOURLY WEATHER ROUNDUP
NATIONAL WEATHER SERVICE SAN JUAN PR
700 AM AST TUE MAY 24 2016

PRZ001-004-241200-
PUERTO RICO

CITY           SKY/WX    TMP DP  RH WIND       PRES   REMARKS
SAN JUAN LMM   PTSUNNY   81  75  83 SE5       30.09R
PONCE          MOSUNNY   82  75  78 E8        30.06
AGUADILLA      MOSUNNY   75  72  88 CALM      30.10
CEIBA          CLOUDY    81  75  83 SE13      30.12R
$$

PRZ006-007-241200-
U.S. VIRGIN ISLANDS

CITY           SKY/WX    TMP DP  RH WIND       PRES   REMARKS
CHARLOTTE AMA  CLOUDY    84  75  74 SE15      30.10R HX  92
CHRISTIANSTED  MOSUNNY   82  73  74 E16       30.10R
$$

HOURLY WEATHER ROUNDUP FOR THE NEWS MEDIA

CITY           SKY/WX    TMP DP  RH WIND       PRES   REMARKS
ORLANDO        PTCLDY    73  64  73 NE5       30.05R
NEW YORK       LGT RAIN  60  56  86 N7        29.89R
NEWARK         LGT RAIN  60  57  89 W3        29.90R
CHICAGO        CLOUDY    61  46  57 CALM      29.97R
HARTFORD       CLOUDY    53  51  93 NE8       29.86F FOG
BOSTON         LGT RAIN  52  51  97 NE12      29.91F
DALLAS         MOCLDY    74  69  85 S10       29.90R
PHILADELPHIA   CLOUDY    59  56  89 CALM      29.92S
LOS ANGELES    MOCLDY    58  52  80 CALM      29.93R
WASHINGTON DC  FAIR      56  53  90 CALM      29.98R





000
ASCA42 TJSJ 241010
RWRPR
PUERTO RICO/U.S. VIRGIN ISLANDS HOURLY WEATHER ROUNDUP
NATIONAL WEATHER SERVICE SAN JUAN PR
600 AM AST TUE MAY 24 2016

PRZ001-004-241100-
PUERTO RICO

CITY           SKY/WX    TMP DP  RH WIND       PRES   REMARKS
SAN JUAN LMM   PTCLDY    81  75  83 SE3       30.08R
CEIBA          CLOUDY    81  75  83 SE10      30.11R
$$

PRZ006-007-241100-
U.S. VIRGIN ISLANDS

CITY           SKY/WX    TMP DP  RH WIND       PRES   REMARKS
CHARLOTTE AMA  CLOUDY    82  75  78 SE14G25   30.08R
CHRISTIANSTED  CLOUDY    82  73  74 E15       30.09S
$$

HOURLY WEATHER ROUNDUP FOR THE NEWS MEDIA

CITY           SKY/WX    TMP DP  RH WIND       PRES   REMARKS
ORLANDO        PTCLDY    72  64  76 E6        30.02S
NEW YORK       LGT RAIN  61  56  83 NW14      29.88R
NEWARK         CLOUDY    59  56  89 W5        29.88R
CHICAGO        CLOUDY    64  46  52 SW5       29.96R
HARTFORD       CLOUDY    53  51  93 NE8       29.87R
BOSTON         CLOUDY    53  51  93 NE12      29.91S
DALLAS         PTCLDY    74  69  85 S10       29.89R
PHILADELPHIA   MOCLDY    56  53  90 E3        29.92R
LOS ANGELES    MOCLDY    58  52  80 W3        29.92F
WASHINGTON DC  FAIR      53  52  96 CALM      29.97R





000
ASCA42 TJSJ 240610
RWRPR
PUERTO RICO/U.S. VIRGIN ISLANDS HOURLY WEATHER ROUNDUP
NATIONAL WEATHER SERVICE SAN JUAN PR
200 AM AST TUE MAY 24 2016

PRZ001-004-240700-
PUERTO RICO

CITY           SKY/WX    TMP DP  RH WIND       PRES   REMARKS
SAN JUAN LMM   PTCLDY    81  75  83 SE3       30.07F
PONCE          PTCLDY    81  73  78 NE6       30.04
CEIBA          CLOUDY    81  75  83 SE6       30.09F
$$

PRZ006-007-240700-
U.S. VIRGIN ISLANDS

CITY           SKY/WX    TMP DP  RH WIND       PRES   REMARKS
CHARLOTTE AMA  CLOUDY    82  77  83 E10       30.07F HX  91
CHRISTIANSTED  CLOUDY    82  73  74 E15       30.08F
$$

HOURLY WEATHER ROUNDUP FOR THE NEWS MEDIA

CITY           SKY/WX    TMP DP  RH WIND       PRES   REMARKS
ORLANDO        CLEAR     75  61  61 NE3       30.03F
NEW YORK       LGT RAIN  61  53  75 W9        29.91F
NEWARK         LGT RAIN  61  53  75 CALM      29.90F
CHICAGO        PTCLDY    60  43  53 S6        29.94R
HARTFORD       CLOUDY    57  53  86 NE9       29.87F
BOSTON         CLOUDY    59  52  77 N8        29.90F
DALLAS         CLOUDY    78  70  76 SE17      29.89F
PHILADELPHIA   CLOUDY    58  52  80 SE6       29.92F
LOS ANGELES    MOCLDY    58  53  84 SW7       29.94R
WASHINGTON DC  MOCLDY    57  55  93 N7        29.98R





000
ASCA42 TJSJ 240510
RWRPR
PUERTO RICO/U.S. VIRGIN ISLANDS HOURLY WEATHER ROUNDUP
NATIONAL WEATHER SERVICE SAN JUAN PR
100 AM AST TUE MAY 24 2016

PRZ001-004-240600-
PUERTO RICO

CITY           SKY/WX    TMP DP  RH WIND       PRES   REMARKS
SAN JUAN LMM   PTCLDY    81  77  89 E5        30.08F
CEIBA          CLOUDY    81  75  83 SE8       30.11F
$$

PRZ006-007-240600-
U.S. VIRGIN ISLANDS

CITY           SKY/WX    TMP DP  RH WIND       PRES   REMARKS
CHARLOTTE AMA  CLOUDY    84  77  79 E13       30.08F HX  94
CHRISTIANSTED  CLOUDY    82  73  74 E16       30.10S
$$

HOURLY WEATHER ROUNDUP FOR THE NEWS MEDIA

CITY           SKY/WX    TMP DP  RH WIND       PRES   REMARKS
ORLANDO        PTCLDY    76  61  59 NE5       30.04S
NEW YORK       LGT RAIN  63  49  60 W9        29.92F
NEWARK         LGT RAIN  62  53  72 SE5       29.91F
CHICAGO        CLOUDY    62  43  49 S6        29.93R
HARTFORD       CLOUDY    58  54  86 NE6       29.88S
BOSTON         CLOUDY    60  52  74 N7        29.92S
DALLAS         CLOUDY    79  70  74 SE13      29.91R
PHILADELPHIA   CLOUDY    60  51  72 S6        29.94S
LOS ANGELES    PTCLDY    59  54  83 W10       29.93R
WASHINGTON DC  MOCLDY    54  54 100 SE5       29.95F





000
ASCA42 TJSJ 240010
RWRPR
PUERTO RICO/U.S. VIRGIN ISLANDS HOURLY WEATHER ROUNDUP
NATIONAL WEATHER SERVICE SAN JUAN PR
800 PM AST MON MAY 23 2016

PRZ001-004-240100-
PUERTO RICO

CITY           SKY/WX    TMP DP  RH WIND       PRES   REMARKS
SAN JUAN LMM   PTCLDY    84  73  70 E7        30.04R HX  91
AGUADILLA      PTCLDY    82  73  74 CALM      30.05R
CEIBA          CLOUDY    81  75  83 SE8       30.07R
$$

PRZ006-007-240100-
U.S. VIRGIN ISLANDS

CITY           SKY/WX    TMP DP  RH WIND       PRES   REMARKS
CHARLOTTE AMA  CLOUDY    84  79  84 SE13      30.05R HX  96
CHRISTIANSTED  PTCLDY    82  75  78 SE13      30.05R
$$

HOURLY WEATHER ROUNDUP FOR THE NEWS MEDIA

CITY           SKY/WX    TMP DP  RH WIND       PRES   REMARKS
ORLANDO        PTCLDY    80  60  50 E14       29.95R
NEW YORK       MOCLDY    62  48  60 S7        29.90R
NEWARK         CLOUDY    66  46  48 SE12G18   29.87S
CHICAGO        MOSUNNY   77  43  29 S8        29.91F
HARTFORD       CLOUDY    62  53  72 SE7       29.87F
BOSTON         CLOUDY    62  51  67 CALM      29.87F
DALLAS         PTSUNNY   83  69  62 S17G23    29.81F
PHILADELPHIA   MOCLDY    62  56  80 NW7       29.90R
LOS ANGELES    MOSUNNY   66  53  63 W15G21    29.88F
WASHINGTON DC  MOCLDY    60  57  89 SE5       29.97R





000
ASCA42 TJSJ 232310
RWRPR
PUERTO RICO/U.S. VIRGIN ISLANDS HOURLY WEATHER ROUNDUP
NATIONAL WEATHER SERVICE SAN JUAN PR
700 PM AST MON MAY 23 2016

PRZ001-004-240000-
PUERTO RICO

CITY           SKY/WX    TMP DP  RH WIND       PRES   REMARKS
SAN JUAN LMM   PTCLDY    84  72  65 SE5G16    30.01R
AGUADILLA      PTCLDY    82  75  78 CALM      30.00R
CEIBA          CLOUDY    82  77  83 E10       30.04R HX  91
$$

PRZ006-007-240000-
U.S. VIRGIN ISLANDS

CITY           SKY/WX    TMP DP  RH WIND       PRES   REMARKS
CHARLOTTE AMA  CLOUDY    84  79  84 SE12      30.02R HX  96
CHRISTIANSTED  PTCLDY    82  75  78 SE12      30.03R
$$

HOURLY WEATHER ROUNDUP FOR THE NEWS MEDIA

CITY           SKY/WX    TMP DP  RH WIND       PRES   REMARKS
ORLANDO        MOSUNNY   82  61  48 E15       29.93R
NEW YORK       PTSUNNY   64  46  52 S7        29.89R
NEWARK         LGT RAIN  67  50  54 CALM      29.87R
CHICAGO        MOSUNNY   80  44  27 S8        29.92F
HARTFORD       CLOUDY    67  49  52 E7        29.88R
BOSTON         CLOUDY    61  50  67 E8        29.88F
DALLAS         CLOUDY    83  69  62 S18       29.82F
PHILADELPHIA   CLOUDY    64  57  77 S6        29.87
LOS ANGELES    MOSUNNY   66  53  63 SW16      29.90F
WASHINGTON DC  PTSUNNY   61  58  90 CALM      29.95S





    US Dept of Commerce
    National Oceanic and Atmospheric Administration
    National Weather Service
    1325 East West Highway
    Silver Spring, MD 20910
    Page Author: NWS Internet Services Team
Disclaimer
Information Quality
Credits
Glossary
Privacy Policy
Freedom of Information Act (FOIA)
About Us
Career Opportunities